Powrót do katalogu

SL-14 DEB

AktywnyPO
NORAD 45355·DEBRIS·🇷🇺 Russia

Wystrzelony Aug 15, 1991 z Plesetsk Cosmodrome

Loading…

Następne Przeloty (najbliższe 24 godziny)

TLE

ŚwieżeSource: Space-Track

Epoka: Sep 14, 2026, 08:44 UTC

1 45355U 91056CP  26257.36415167  .00002566  00000-0  71388-2 0  9996
2 45355  82.6084 127.8774 0028651 140.4582 219.8635 13.11886051313223

Śledź SL-14 DEB w czasie rzeczywistym z AllMySat

Download on the App Store